When you browse on this site, cookies collect data to enhance your experience and personalize the content and advertising you see.
Visit our Privacy Policy to learn more. By continuing to use the site, you agree to this use of cookies and data.
  • en Suisse
  • Liste des pays
  • À 7 jours
  • Température de l'eau
  • Carte satellitaire
  • Carte météo
  • Widgets météo
  • user-avatar
    Se connecter

    Météo par heure à Tromsø

    Ce jour, 18 Novembre, Dimanche

    Heure Température Précipitation Vent Pression Humidité
    00:00 +2°C° 0 mm 2 m/s 772 mmHg 90%
    01:00 +2°C° 0 mm 2 m/s 772 mmHg 89%
    02:00 +1°C° 0 mm 3 m/s 772 mmHg 87%
    03:00 +1°C° 0 mm 3 m/s 772 mmHg 85%
    04:00 +1°C° 0 mm 3 m/s 772 mmHg 83%
    05:00 +1°C° 0 mm 3 m/s 772 mmHg 81%
    06:00 +1°C° 0 mm 3 m/s 772 mmHg 79%
    07:00 +1°C° 0 mm 3 m/s 772 mmHg 77%
    08:00 +1°C° 0 mm 3 m/s 772 mmHg 76%
    09:00 +1°C° 0 mm 3 m/s 772 mmHg 75%
    10:00 +1°C° 0 mm 3 m/s 772 mmHg 73%
    11:00 +1°C° 0 mm 3 m/s 771 mmHg 72%
    12:00 +1°C° 0 mm 3 m/s 771 mmHg 72%
    13:00 +2°C° 0 mm 3 m/s 771 mmHg 71%
    14:00 +2°C° 0 mm 3 m/s 771 mmHg 72%
    15:00 +2°C° 0 mm 3 m/s 770 mmHg 73%
    16:00 +1°C° 0 mm 4 m/s 770 mmHg 73%
    17:00 +1°C° 0 mm 4 m/s 770 mmHg 74%
    18:00 +1°C° 0 mm 4 m/s 769 mmHg 74%
    19:00 +1°C° 0 mm 4 m/s 769 mmHg 75%
    20:00 +1°C° 0 mm 4 m/s 768 mmHg 74%
    21:00 +1°C° 0 mm 4 m/s 768 mmHg 74%
    22:00 +1°C° 0 mm 4 m/s 768 mmHg 73%
    23:00 +1°C° 0 mm 5 m/s 767 mmHg 72%

    Demain, 19 Novembre, Lundi

    Heure Température Précipitation Vent Pression Humidité
    00:00 +1°C° 0 mm 5 m/s 767 mmHg 70%
    01:00 +1°C° 0 mm 5 m/s 767 mmHg 69%
    02:00 +1°C° 0 mm 5 m/s 766 mmHg 68%
    03:00 +2°C° 0 mm 5 m/s 766 mmHg 67%
    04:00 +2°C° 0 mm 5 m/s 765 mmHg 66%
    05:00 +2°C° 0 mm 6 m/s 765 mmHg 66%
    06:00 +2°C° 0 mm 6 m/s 764 mmHg 65%
    07:00 +2°C° 0 mm 6 m/s 764 mmHg 64%
    08:00 +2°C° 0 mm 6 m/s 764 mmHg 63%
    09:00 +2°C° 0 mm 6 m/s 764 mmHg 63%
    10:00 +2°C° 0 mm 6 m/s 764 mmHg 62%
    11:00 +2°C° 0 mm 6 m/s 763 mmHg 62%
    12:00 +2°C° 0 mm 7 m/s 763 mmHg 62%
    13:00 +2°C° 0 mm 7 m/s 762 mmHg 62%
    14:00 +2°C° 0 mm 7 m/s 761 mmHg 62%
    15:00 +2°C° 0 mm 7 m/s 761 mmHg 63%
    16:00 +1°C° 0 mm 8 m/s 760 mmHg 64%
    17:00 +1°C° 0.1 mm 8 m/s 759 mmHg 67%
    18:00 +1°C° 0.1 mm 9 m/s 759 mmHg 71%
    19:00 +1°C° 0.1 mm 9 m/s 758 mmHg 75%
    20:00 +1°C° 1.1 mm 10 m/s 758 mmHg 81%
    21:00 +1°C° 1.1 mm 10 m/s 758 mmHg 87%
    22:00 +2°C° 1.1 mm 10 m/s 758 mmHg 94%
    23:00 +2°C° 0.3 mm 9 m/s 759 mmHg 92%

    Après-demain, 20 Novembre, Mardi

    Heure Température Précipitation Vent Pression Humidité
    00:00 +1°C° 0.3 mm 8 m/s 760 mmHg 90%
    01:00 +2°C° 0.3 mm 7 m/s 760 mmHg 89%
    02:00 +2°C° 0.1 mm 7 m/s 761 mmHg 90%
    03:00 +1°C° 0.1 mm 6 m/s 762 mmHg 90%
    04:00 +1°C° 0.1 mm 6 m/s 763 mmHg 91%
    05:00 +1°C° 0.2 mm 5 m/s 763 mmHg 90%
    06:00 0°C° 0.2 mm 5 m/s 764 mmHg 90%
    07:00 0°C° 0.2 mm 5 m/s 765 mmHg 90%
    08:00 0°C° 0 mm 4 m/s 765 mmHg 89%
    09:00 -1°C° 0 mm 4 m/s 766 mmHg 89%
    10:00 -1°C° 0 mm 4 m/s 767 mmHg 89%
    11:00 -1°C° 0 mm 4 m/s 767 mmHg 88%
    12:00 0°C° 0 mm 3 m/s 768 mmHg 88%
    13:00 0°C° 0 mm 3 m/s 768 mmHg 88%
    14:00 0°C° 0 mm 3 m/s 768 mmHg 87%
    15:00 0°C° 0 mm 3 m/s 769 mmHg 87%
    16:00 0°C° 0 mm 3 m/s 769 mmHg 86%
    17:00 +1°C° 0 mm 2 m/s 769 mmHg 87%
    18:00 +1°C° 0 mm 2 m/s 769 mmHg 87%
    19:00 +1°C° 0 mm 2 m/s 769 mmHg 88%
    20:00 +1°C° 0 mm 2 m/s 769 mmHg 88%
    21:00 +1°C° 0 mm 2 m/s 769 mmHg 89%
    22:00 +1°C° 0 mm 2 m/s 769 mmHg 89%
    23:00 +1°C° 0 mm 2 m/s 768 mmHg 89%

    21 Novembre, Mercredi

    Heure Température Précipitation Vent Pression Humidité
    00:00 -1°C° 0 mm 2 m/s 768 mmHg 89%
    01:00 -1°C° 0 mm 2 m/s 768 mmHg 88%
    02:00 -1°C° 0 mm 3 m/s 767 mmHg 89%
    03:00 -1°C° 0 mm 3 m/s 767 mmHg 89%
    04:00 -1°C° 0 mm 3 m/s 766 mmHg 89%
    05:00 -2°C° 0 mm 4 m/s 766 mmHg 89%
    06:00 -2°C° 0 mm 4 m/s 765 mmHg 89%
    07:00 -2°C° 0 mm 4 m/s 764 mmHg 89%
    08:00 -2°C° 0 mm 5 m/s 764 mmHg 89%
    09:00 -2°C° 0 mm 5 m/s 764 mmHg 88%
    10:00 -2°C° 0 mm 5 m/s 763 mmHg 88%
    11:00 -2°C° 0 mm 5 m/s 763 mmHg 88%
    12:00 -3°C° 0 mm 6 m/s 763 mmHg 87%
    13:00 -3°C° 0 mm 6 m/s 762 mmHg 86%
    14:00 -3°C° 0.1 mm 6 m/s 762 mmHg 87%
    15:00 -2°C° 0.1 mm 6 m/s 762 mmHg 87%
    16:00 -2°C° 0.1 mm 6 m/s 761 mmHg 88%
    17:00 -2°C° 0.1 mm 6 m/s 761 mmHg 88%
    18:00 -2°C° 0.1 mm 6 m/s 761 mmHg 89%
    19:00 -1°C° 0.1 mm 6 m/s 761 mmHg 89%
    20:00 0°C° 0.1 mm 5 m/s 761 mmHg 90%
    21:00 0°C° 0.1 mm 5 m/s 761 mmHg 90%
    22:00 0°C° 0.1 mm 5 m/s 761 mmHg 90%
    23:00 0°C° 0.1 mm 5 m/s 760 mmHg 90%

    22 Novembre, Jeudi

    Heure Température Précipitation Vent Pression Humidité
    00:00 0°C° 0.1 mm 5 m/s 760 mmHg 90%
    01:00 0°C° 0.1 mm 5 m/s 760 mmHg 90%
    02:00 0°C° 0.1 mm 5 m/s 760 mmHg 90%
    03:00 0°C° 0.1 mm 5 m/s 760 mmHg 90%
    04:00 0°C° 0.1 mm 5 m/s 760 mmHg 89%
    05:00 -1°C° 0.1 mm 5 m/s 760 mmHg 90%
    06:00 -1°C° 0.1 mm 5 m/s 759 mmHg 90%
    07:00 -1°C° 0.1 mm 5 m/s 759 mmHg 90%
    08:00 -1°C° 0.1 mm 5 m/s 759 mmHg 90%
    09:00 -1°C° 0.1 mm 4 m/s 759 mmHg 90%
    10:00 -1°C° 0.1 mm 4 m/s 759 mmHg 91%
    11:00 -1°C° 0 mm 4 m/s 759 mmHg 91%
    12:00 -1°C° 0 mm 5 m/s 759 mmHg 91%
    13:00 -1°C° 0 mm 5 m/s 759 mmHg 91%
    14:00 -1°C° 0.1 mm 5 m/s 759 mmHg 92%
    15:00 -1°C° 0.1 mm 5 m/s 758 mmHg 92%
    16:00 -1°C° 0.1 mm 5 m/s 758 mmHg 92%
    17:00 -1°C° 0.1 mm 5 m/s 757 mmHg 92%
    18:00 -2°C° 0.1 mm 6 m/s 757 mmHg 92%
    19:00 -2°C° 0.1 mm 6 m/s 757 mmHg 92%
    20:00 -2°C° 0.1 mm 6 m/s 756 mmHg 91%
    21:00 -2°C° 0.1 mm 7 m/s 755 mmHg 91%
    22:00 -2°C° 0.1 mm 7 m/s 755 mmHg 90%
    23:00 -2°C° 0.2 mm 8 m/s 754 mmHg 91%

    23 Novembre, Vendredi

    Heure Température Précipitation Vent Pression Humidité
    00:00 -2°C° 0.2 mm 8 m/s 753 mmHg 91%
    01:00 -1°C° 0.2 mm 9 m/s 752 mmHg 91%
    02:00 -2°C° 0.4 mm 10 m/s 752 mmHg 89%
    03:00 -2°C° 0.4 mm 12 m/s 751 mmHg 88%
    04:00 -1°C° 0.4 mm 13 m/s 750 mmHg 87%
    05:00 -2°C° 0.4 mm 14 m/s 749 mmHg 82%
    06:00 -2°C° 0.4 mm 14 m/s 749 mmHg 77%
    07:00 -4°C° 0.4 mm 14 m/s 749 mmHg 71%
    08:00 -4°C° 0.2 mm 15 m/s 749 mmHg 74%
    09:00 -5°C° 0.2 mm 15 m/s 749 mmHg 77%
    10:00 -5°C° 0.2 mm 15 m/s 748 mmHg 79%
    11:00 -5°C° 0.4 mm 15 m/s 748 mmHg 80%
    12:00 -5°C° 0.4 mm 15 m/s 747 mmHg 81%
    13:00 -5°C° 0.4 mm 16 m/s 747 mmHg 81%
    14:00 -7°C° 0.5 mm 16 m/s 746 mmHg 82%
    15:00 -7°C° 0.5 mm 16 m/s 746 mmHg 83%
    16:00 -7°C° 0.5 mm 16 m/s 745 mmHg 84%
    17:00 -7°C° 0.6 mm 16 m/s 745 mmHg 82%
    18:00 -7°C° 0.6 mm 15 m/s 745 mmHg 80%
    19:00 -7°C° 0.6 mm 15 m/s 744 mmHg 78%
    20:00 -5°C° 0.8 mm 15 m/s 744 mmHg 80%
    21:00 -5°C° 0.8 mm 15 m/s 744 mmHg 82%
    22:00 -5°C° 0.8 mm 14 m/s 744 mmHg 84%
    23:00 -5°C° 0.6 mm 13 m/s 745 mmHg 82%
    Voir plus